Year,Month,Day,Hour,Minute,Value (Times are PST for temperature in C)
2015,09,22,00,00,8.50
2015,09,22,00,01,8.50
2015,09,22,00,02,8.50
2015,09,22,00,03,8.60
2015,09,22,00,04,8.60
2015,09,22,00,05,8.60
2015,09,22,00,06,8.60
2015,09,22,00,07,8.60
2015,09,22,00,08,8.60
2015,09,22,00,09,8.60
2015,09,22,00,10,8.60
2015,09,22,00,11,8.60
2015,09,22,00,12,8.50
2015,09,22,00,13,8.50
2015,09,22,00,14,8.40
2015,09,22,00,15,8.40
2015,09,22,00,16,8.40
2015,09,22,00,17,8.30
2015,09,22,00,18,8.20
2015,09,22,00,19,8.20
2015,09,22,00,20,8.20
2015,09,22,00,21,8.20
2015,09,22,00,22,8.10
2015,09,22,00,23,8.10
2015,09,22,00,24,8.10
2015,09,22,00,25,8.10
2015,09,22,00,26,8.10
2015,09,22,00,27,8.10
2015,09,22,00,28,8.00
2015,09,22,00,29,8.00
2015,09,22,00,30,8.00
2015,09,22,00,31,8.00
2015,09,22,00,32,8.00
2015,09,22,00,33,8.00
2015,09,22,00,34,8.00
2015,09,22,00,35,8.00
2015,09,22,00,36,8.10
2015,09,22,00,37,8.10
2015,09,22,00,38,8.10
2015,09,22,00,39,8.10
2015,09,22,00,40,8.10
2015,09,22,00,41,8.10
2015,09,22,00,42,8.10
2015,09,22,00,43,8.10
2015,09,22,00,44,8.10
2015,09,22,00,45,8.10
2015,09,22,00,46,8.10
2015,09,22,00,47,8.10
2015,09,22,00,48,8.10
2015,09,22,00,49,8.10
2015,09,22,00,50,8.10
2015,09,22,00,51,8.10
2015,09,22,00,52,8.10
2015,09,22,00,53,8.20
2015,09,22,00,54,8.20
2015,09,22,00,55,8.10
2015,09,22,00,56,8.00
2015,09,22,00,57,8.00
2015,09,22,00,58,7.80
2015,09,22,00,59,7.70
2015,09,22,01,00,7.60
2015,09,22,01,01,7.60
2015,09,22,01,02,7.50
2015,09,22,01,03,7.40
2015,09,22,01,04,7.40
2015,09,22,01,05,7.40
2015,09,22,01,06,7.40
2015,09,22,01,07,7.40
2015,09,22,01,08,7.30
2015,09,22,01,09,7.30
2015,09,22,01,10,7.30
2015,09,22,01,11,7.30
2015,09,22,01,12,7.30
2015,09,22,01,13,7.30
2015,09,22,01,14,7.30
2015,09,22,01,15,7.30
2015,09,22,01,16,7.40
2015,09,22,01,17,7.40
2015,09,22,01,18,7.40
2015,09,22,01,19,7.30
2015,09,22,01,20,7.30
2015,09,22,01,21,7.20
2015,09,22,01,22,7.20
2015,09,22,01,23,7.10
2015,09,22,01,24,7.10
2015,09,22,01,25,7.10
2015,09,22,01,26,7.10
2015,09,22,01,27,7.10
2015,09,22,01,28,7.10
2015,09,22,01,29,7.10
2015,09,22,01,30,7.10
2015,09,22,01,31,7.10
2015,09,22,01,32,7.10
2015,09,22,01,33,7.10
2015,09,22,01,34,7.10
2015,09,22,01,35,7.10
2015,09,22,01,36,7.10
2015,09,22,01,37,7.10
2015,09,22,01,38,7.00
2015,09,22,01,39,7.00
2015,09,22,01,40,6.90
2015,09,22,01,41,6.90
2015,09,22,01,42,6.80
2015,09,22,01,43,6.80
2015,09,22,01,44,6.70
2015,09,22,01,45,6.70
2015,09,22,01,46,6.60
2015,09,22,01,47,6.60
2015,09,22,01,48,6.60
2015,09,22,01,49,6.60
2015,09,22,01,50,6.60
2015,09,22,01,51,6.60
2015,09,22,01,52,6.60
2015,09,22,01,53,6.60
2015,09,22,01,54,6.60
2015,09,22,01,55,6.60
2015,09,22,01,56,6.70
2015,09,22,01,57,6.70
2015,09,22,01,58,6.70
2015,09,22,01,59,6.60
2015,09,22,02,00,6.60
2015,09,22,02,01,6.60
2015,09,22,02,02,6.50
2015,09,22,02,03,6.50
2015,09,22,02,04,6.40
2015,09,22,02,05,6.40
2015,09,22,02,06,6.40
2015,09,22,02,07,6.30
2015,09,22,02,08,6.30
2015,09,22,02,09,6.20
2015,09,22,02,10,6.20
2015,09,22,02,11,6.20
2015,09,22,02,12,6.20
2015,09,22,02,13,6.10
2015,09,22,02,14,6.10
2015,09,22,02,15,6.10
2015,09,22,02,16,6.10
2015,09,22,02,17,6.10
2015,09,22,02,18,6.10
2015,09,22,02,19,6.10
2015,09,22,02,20,6.10
2015,09,22,02,21,6.10
2015,09,22,02,22,6.10
2015,09,22,02,23,6.10
2015,09,22,02,24,6.10
2015,09,22,02,25,6.10
2015,09,22,02,26,6.10
2015,09,22,02,27,6.10
2015,09,22,02,28,6.10
2015,09,22,02,29,6.00
2015,09,22,02,30,6.00
2015,09,22,02,31,6.00
2015,09,22,02,32,6.00
2015,09,22,02,33,6.00
2015,09,22,02,34,6.00
2015,09,22,02,35,6.10
2015,09,22,02,36,6.10
2015,09,22,02,37,6.10
2015,09,22,02,38,6.10
2015,09,22,02,39,6.10
2015,09,22,02,40,6.10
2015,09,22,02,41,6.10
2015,09,22,02,42,6.20
2015,09,22,02,43,6.20
2015,09,22,02,44,6.20
2015,09,22,02,45,6.20
2015,09,22,02,46,6.20
2015,09,22,02,47,6.20
2015,09,22,02,48,6.20
2015,09,22,02,49,6.20
2015,09,22,02,50,6.20
2015,09,22,02,51,6.10
2015,09,22,02,52,6.10
2015,09,22,02,53,6.10
2015,09,22,02,54,6.00
2015,09,22,02,55,5.90
2015,09,22,02,56,5.90
2015,09,22,02,57,5.80
2015,09,22,02,58,5.80
2015,09,22,02,59,5.80
2015,09,22,03,00,5.70
2015,09,22,03,01,5.70
2015,09,22,03,02,5.70
2015,09,22,03,03,5.70
2015,09,22,03,04,5.70
2015,09,22,03,05,5.80
2015,09,22,03,06,5.80
2015,09,22,03,07,5.80
2015,09,22,03,08,5.80
2015,09,22,03,09,5.80
2015,09,22,03,10,5.80
2015,09,22,03,11,5.90
2015,09,22,03,12,5.90
2015,09,22,03,13,5.90
2015,09,22,03,14,5.90
2015,09,22,03,15,5.90
2015,09,22,03,16,5.90
2015,09,22,03,17,5.90
2015,09,22,03,18,6.00
2015,09,22,03,19,6.00
2015,09,22,03,20,6.10
2015,09,22,03,21,6.10
2015,09,22,03,22,6.10
2015,09,22,03,23,6.10
2015,09,22,03,24,6.10
2015,09,22,03,25,6.10
2015,09,22,03,26,6.00
2015,09,22,03,27,6.00
2015,09,22,03,28,5.90
2015,09,22,03,29,5.90
2015,09,22,03,30,5.90
2015,09,22,03,31,5.90
2015,09,22,03,32,5.80
2015,09,22,03,33,5.90
2015,09,22,03,34,5.90
2015,09,22,03,35,5.90
2015,09,22,03,36,5.90
2015,09,22,03,37,5.90
2015,09,22,03,38,5.90
2015,09,22,03,39,5.90
2015,09,22,03,40,5.90
2015,09,22,03,41,5.90
2015,09,22,03,42,5.90
2015,09,22,03,43,6.00
2015,09,22,03,44,6.00
2015,09,22,03,45,6.10
2015,09,22,03,46,6.10
2015,09,22,03,47,6.20
2015,09,22,03,48,6.20
2015,09,22,03,49,6.30
2015,09,22,03,50,6.30
2015,09,22,03,51,6.30
2015,09,22,03,52,6.30
2015,09,22,03,53,6.30
2015,09,22,03,54,6.30
2015,09,22,03,55,6.10
2015,09,22,03,56,6.00
2015,09,22,03,57,5.90
2015,09,22,03,58,5.80
2015,09,22,03,59,5.80
2015,09,22,04,00,5.70
2015,09,22,04,01,5.70
2015,09,22,04,02,5.60
2015,09,22,04,03,5.50
2015,09,22,04,04,5.40
2015,09,22,04,05,5.30
2015,09,22,04,06,5.20
2015,09,22,04,07,5.10
2015,09,22,04,08,5.00
2015,09,22,04,09,4.90
2015,09,22,04,10,4.90
2015,09,22,04,11,4.80
2015,09,22,04,12,4.80
2015,09,22,04,13,4.80
2015,09,22,04,14,4.80
2015,09,22,04,15,4.80
2015,09,22,04,16,4.70
2015,09,22,04,17,4.70
2015,09,22,04,18,4.70
2015,09,22,04,19,4.70
2015,09,22,04,20,4.70
2015,09,22,04,21,4.80
2015,09,22,04,22,4.80
2015,09,22,04,23,4.80
2015,09,22,04,24,4.90
2015,09,22,04,25,5.00
2015,09,22,04,26,5.10
2015,09,22,04,27,5.20
2015,09,22,04,28,5.30
2015,09,22,04,29,5.30
2015,09,22,04,30,5.40
2015,09,22,04,31,5.50
2015,09,22,04,32,5.50
2015,09,22,04,33,5.50
2015,09,22,04,34,5.50
2015,09,22,04,35,5.60
2015,09,22,04,36,5.60
2015,09,22,04,37,5.60
2015,09,22,04,38,5.70
2015,09,22,04,39,5.70
2015,09,22,04,40,5.70
2015,09,22,04,41,5.70
2015,09,22,04,42,5.70
2015,09,22,04,43,5.80
2015,09,22,04,44,5.80
2015,09,22,04,45,5.80
2015,09,22,04,46,5.80
2015,09,22,04,47,5.90
2015,09,22,04,48,5.90
2015,09,22,04,49,5.90
2015,09,22,04,50,5.90
2015,09,22,04,51,6.00
2015,09,22,04,52,6.00
2015,09,22,04,53,6.00
2015,09,22,04,54,6.10
2015,09,22,04,55,6.00
2015,09,22,04,56,5.90
2015,09,22,04,57,5.80
2015,09,22,04,58,5.70
2015,09,22,04,59,5.70
2015,09,22,05,00,5.70
2015,09,22,05,01,5.60
2015,09,22,05,02,5.60
2015,09,22,05,03,5.50
2015,09,22,05,04,5.40
2015,09,22,05,05,5.30
2015,09,22,05,06,5.30
2015,09,22,05,07,5.20
2015,09,22,05,08,5.20
2015,09,22,05,09,5.20
2015,09,22,05,10,5.10
2015,09,22,05,11,5.10
2015,09,22,05,12,5.00
2015,09,22,05,13,5.00
2015,09,22,05,14,5.00
2015,09,22,05,15,5.00
2015,09,22,05,16,5.00
2015,09,22,05,17,5.00
2015,09,22,05,18,5.00
2015,09,22,05,19,5.00
2015,09,22,05,20,5.10
2015,09,22,05,21,5.10
2015,09,22,05,22,5.10
2015,09,22,05,23,5.10
2015,09,22,05,24,5.20
2015,09,22,05,25,5.20
2015,09,22,05,26,5.20
2015,09,22,05,27,5.20
2015,09,22,05,28,5.20
2015,09,22,05,29,5.10
2015,09,22,05,30,5.10
2015,09,22,05,31,5.00
2015,09,22,05,32,4.90
2015,09,22,05,33,4.80
2015,09,22,05,34,4.80
2015,09,22,05,35,4.70
2015,09,22,05,36,4.70
2015,09,22,05,37,4.70
2015,09,22,05,38,4.70
2015,09,22,05,39,4.70
2015,09,22,05,40,4.70
2015,09,22,05,41,4.70
2015,09,22,05,42,4.70
2015,09,22,05,43,4.60
2015,09,22,05,44,4.70
2015,09,22,05,45,4.70
2015,09,22,05,46,4.80
2015,09,22,05,47,4.80
2015,09,22,05,48,4.80
2015,09,22,05,49,4.80
2015,09,22,05,50,4.80
2015,09,22,05,51,4.80
2015,09,22,05,52,4.80
2015,09,22,05,53,4.80
2015,09,22,05,54,4.80
2015,09,22,05,55,4.90
2015,09,22,05,56,4.90
2015,09,22,05,57,4.90
2015,09,22,05,58,4.90
2015,09,22,05,59,4.90
2015,09,22,06,00,4.90
2015,09,22,06,01,5.00
2015,09,22,06,02,5.00
2015,09,22,06,03,5.00
2015,09,22,06,04,5.00
2015,09,22,06,05,5.10
2015,09,22,06,06,5.10
2015,09,22,06,07,5.10
2015,09,22,06,08,5.20
2015,09,22,06,09,5.20
2015,09,22,06,10,5.20
2015,09,22,06,11,5.30
2015,09,22,06,12,5.30
2015,09,22,06,13,5.20
2015,09,22,06,14,5.20
2015,09,22,06,15,5.10
2015,09,22,06,16,5.00
2015,09,22,06,17,4.90
2015,09,22,06,18,4.80
2015,09,22,06,19,4.80
2015,09,22,06,20,4.80
2015,09,22,06,21,4.80
2015,09,22,06,22,4.80
2015,09,22,06,23,4.80
2015,09,22,06,24,4.80
2015,09,22,06,25,4.80
2015,09,22,06,26,4.80
2015,09,22,06,27,4.90
2015,09,22,06,28,4.90
2015,09,22,06,29,4.90
2015,09,22,06,30,4.90
2015,09,22,06,31,4.90
2015,09,22,06,32,5.00
2015,09,22,06,33,5.00
2015,09,22,06,34,5.00
2015,09,22,06,35,5.00
2015,09,22,06,36,4.90
2015,09,22,06,37,4.90
2015,09,22,06,38,4.90
2015,09,22,06,39,4.90
2015,09,22,06,40,4.90
2015,09,22,06,41,4.90
2015,09,22,06,42,4.90
2015,09,22,06,43,4.90
2015,09,22,06,44,4.90
2015,09,22,06,45,4.90
2015,09,22,06,46,4.90
2015,09,22,06,47,5.00
2015,09,22,06,48,5.10
2015,09,22,06,49,5.10
2015,09,22,06,50,5.20
2015,09,22,06,51,5.30
2015,09,22,06,52,5.40
2015,09,22,06,53,5.40
2015,09,22,06,54,5.50
2015,09,22,06,55,5.50
2015,09,22,06,56,5.40
2015,09,22,06,57,5.20
2015,09,22,06,58,5.00
2015,09,22,06,59,4.90
2015,09,22,07,00,4.80
2015,09,22,07,01,4.80
2015,09,22,07,02,4.70
2015,09,22,07,03,4.70
2015,09,22,07,04,4.70
2015,09,22,07,05,4.70
2015,09,22,07,06,4.80
2015,09,22,07,07,4.80
2015,09,22,07,08,4.80
2015,09,22,07,09,4.80
2015,09,22,07,10,4.90
2015,09,22,07,11,4.90
2015,09,22,07,12,4.90
2015,09,22,07,13,4.90
2015,09,22,07,14,4.90
2015,09,22,07,15,4.90
2015,09,22,07,16,4.90
2015,09,22,07,17,4.90
2015,09,22,07,18,4.90
2015,09,22,07,19,4.90
2015,09,22,07,20,4.90
2015,09,22,07,21,4.90
2015,09,22,07,22,4.90
2015,09,22,07,23,4.90
2015,09,22,07,24,4.90
2015,09,22,07,25,4.90
2015,09,22,07,26,4.90
2015,09,22,07,27,5.00
2015,09,22,07,28,5.10
2015,09,22,07,29,5.20
2015,09,22,07,30,5.30
2015,09,22,07,31,5.30
2015,09,22,07,32,5.40
2015,09,22,07,33,5.40
2015,09,22,07,34,5.50
2015,09,22,07,35,5.50
2015,09,22,07,36,5.60
2015,09,22,07,37,5.70
2015,09,22,07,38,5.70
2015,09,22,07,39,5.70
2015,09,22,07,40,5.60
2015,09,22,07,41,5.50
2015,09,22,07,42,5.30
2015,09,22,07,43,5.30
2015,09,22,07,44,5.20
2015,09,22,07,45,5.10
2015,09,22,07,46,4.90
2015,09,22,07,47,4.80
2015,09,22,07,48,4.70
2015,09,22,07,49,4.60
2015,09,22,07,50,4.50
2015,09,22,07,51,4.40
2015,09,22,07,52,4.30
2015,09,22,07,53,4.30
2015,09,22,07,54,4.30
2015,09,22,07,55,4.20
2015,09,22,07,56,4.30
2015,09,22,07,57,4.30
2015,09,22,07,58,4.40
2015,09,22,07,59,4.50
2015,09,22,08,00,4.60
2015,09,22,08,01,4.70
2015,09,22,08,02,4.80
2015,09,22,08,03,4.80
2015,09,22,08,04,4.80
2015,09,22,08,05,4.90
2015,09,22,08,06,4.90
2015,09,22,08,07,5.00
2015,09,22,08,08,5.10
2015,09,22,08,09,5.20
2015,09,22,08,10,5.40
2015,09,22,08,11,5.60
2015,09,22,08,12,5.70
2015,09,22,08,13,5.80
2015,09,22,08,14,6.00
2015,09,22,08,15,6.10
2015,09,22,08,16,6.30
2015,09,22,08,17,6.40
2015,09,22,08,18,6.50
2015,09,22,08,19,6.70
2015,09,22,08,20,6.80
2015,09,22,08,21,6.90
2015,09,22,08,22,7.00
2015,09,22,08,23,7.10
2015,09,22,08,24,7.20
2015,09,22,08,25,7.20
2015,09,22,08,26,7.30
2015,09,22,08,27,7.30
2015,09,22,08,28,7.40
2015,09,22,08,29,7.50
2015,09,22,08,30,7.50
2015,09,22,08,31,7.60
2015,09,22,08,32,7.70
2015,09,22,08,33,7.70
2015,09,22,08,34,7.80
2015,09,22,08,35,7.90
2015,09,22,08,36,8.00
2015,09,22,08,37,8.10
2015,09,22,08,38,8.20
2015,09,22,08,39,8.30
2015,09,22,08,40,8.50
2015,09,22,08,41,8.60
2015,09,22,08,42,8.70
2015,09,22,08,43,8.80
2015,09,22,08,44,9.00
2015,09,22,08,45,9.10
2015,09,22,08,46,9.20
2015,09,22,08,47,9.30
2015,09,22,08,48,9.50
2015,09,22,08,49,9.60
2015,09,22,08,50,9.70
2015,09,22,08,51,9.80
2015,09,22,08,52,9.90
2015,09,22,08,53,10.00
2015,09,22,08,54,10.10
2015,09,22,08,55,10.20
2015,09,22,08,56,10.30
2015,09,22,08,57,10.50
2015,09,22,08,58,10.60
2015,09,22,08,59,10.70
2015,09,22,09,00,10.80
2015,09,22,09,01,10.90
2015,09,22,09,02,11.10
2015,09,22,09,03,11.20
2015,09,22,09,04,11.30
2015,09,22,09,05,11.40
2015,09,22,09,06,11.60
2015,09,22,09,07,11.70
2015,09,22,09,08,11.90
2015,09,22,09,09,12.00
2015,09,22,09,10,12.10
2015,09,22,09,11,12.20
2015,09,22,09,12,12.30
2015,09,22,09,13,12.40
2015,09,22,09,14,12.40
2015,09,22,09,15,12.50
2015,09,22,09,16,12.50
2015,09,22,09,17,12.50
2015,09,22,09,18,12.60
2015,09,22,09,19,12.60
2015,09,22,09,20,12.60
2015,09,22,09,21,12.60
2015,09,22,09,22,12.60
2015,09,22,09,23,12.60
2015,09,22,09,24,12.60
2015,09,22,09,25,12.50
2015,09,22,09,26,12.50
2015,09,22,09,27,12.40
2015,09,22,09,28,12.40
2015,09,22,09,29,12.40
2015,09,22,09,30,12.40
2015,09,22,09,31,12.40
2015,09,22,09,32,12.30
2015,09,22,09,33,12.30
2015,09,22,09,34,12.30
2015,09,22,09,35,12.30
2015,09,22,09,36,12.30
2015,09,22,09,37,12.30
2015,09,22,09,38,12.30
2015,09,22,09,39,12.30
2015,09,22,09,40,12.40
2015,09,22,09,41,12.40
2015,09,22,09,42,12.40
2015,09,22,09,43,12.40
2015,09,22,09,44,12.40
2015,09,22,09,45,12.40
2015,09,22,09,46,12.40
2015,09,22,09,47,12.40
2015,09,22,09,48,12.40
2015,09,22,09,49,12.40
2015,09,22,09,50,12.40
2015,09,22,09,51,12.40
2015,09,22,09,52,12.50
2015,09,22,09,53,12.50
2015,09,22,09,54,12.60
2015,09,22,09,55,12.60
2015,09,22,09,56,12.70
2015,09,22,09,57,12.70
2015,09,22,09,58,12.80
2015,09,22,09,59,12.80
2015,09,22,10,00,12.80
2015,09,22,10,01,12.80
2015,09,22,10,02,12.80
2015,09,22,10,03,12.80
2015,09,22,10,04,12.80
2015,09,22,10,05,12.90
2015,09,22,10,06,12.90
2015,09,22,10,07,12.80
2015,09,22,10,08,12.80
2015,09,22,10,09,12.80
2015,09,22,10,10,12.80
2015,09,22,10,11,12.70
2015,09,22,10,12,12.70
2015,09,22,10,13,12.70
2015,09,22,10,14,12.60
2015,09,22,10,15,12.60
2015,09,22,10,16,12.60
2015,09,22,10,17,12.60
2015,09,22,10,18,12.60
2015,09,22,10,19,12.60
2015,09,22,10,20,12.70
2015,09,22,10,21,12.70
2015,09,22,10,22,12.70
2015,09,22,10,23,12.70
2015,09,22,10,24,12.80
2015,09,22,10,25,12.80
2015,09,22,10,26,12.70
2015,09,22,10,27,12.70
2015,09,22,10,28,12.70
2015,09,22,10,29,12.80
2015,09,22,10,30,12.80
2015,09,22,10,31,12.80
2015,09,22,10,32,12.80
2015,09,22,10,33,12.80
2015,09,22,10,34,12.80
2015,09,22,10,35,12.80
2015,09,22,10,36,12.80
2015,09,22,10,37,12.80
2015,09,22,10,38,12.80
2015,09,22,10,39,12.80
2015,09,22,10,40,12.80
2015,09,22,10,41,12.80
2015,09,22,10,42,12.80
2015,09,22,10,43,12.80
2015,09,22,10,44,12.80
2015,09,22,10,45,12.80
2015,09,22,10,46,12.80
2015,09,22,10,47,12.80
2015,09,22,10,48,12.80
2015,09,22,10,49,12.80
2015,09,22,10,50,12.80
2015,09,22,10,51,12.80
2015,09,22,10,52,12.70
2015,09,22,10,53,12.70
2015,09,22,10,54,12.70
2015,09,22,10,55,12.70
2015,09,22,10,56,12.70
2015,09,22,10,57,12.60
2015,09,22,10,58,12.60
2015,09,22,10,59,12.50
2015,09,22,11,00,12.50
2015,09,22,11,01,12.50
2015,09,22,11,02,12.50
2015,09,22,11,03,12.60
2015,09,22,11,04,12.60
2015,09,22,11,05,12.70
2015,09,22,11,06,12.80
2015,09,22,11,07,12.80
2015,09,22,11,08,12.90
2015,09,22,11,09,12.90
2015,09,22,11,10,13.00
2015,09,22,11,11,13.00
2015,09,22,11,12,13.00
2015,09,22,11,13,12.90
2015,09,22,11,14,12.90
2015,09,22,11,15,12.90
2015,09,22,11,16,13.00
2015,09,22,11,17,13.00
2015,09,22,11,18,13.10
2015,09,22,11,19,13.10
2015,09,22,11,20,13.20
2015,09,22,11,21,13.20
2015,09,22,11,22,13.20
2015,09,22,11,23,13.30
2015,09,22,11,24,13.30
2015,09,22,11,25,13.30
2015,09,22,11,26,13.40
2015,09,22,11,27,13.40
2015,09,22,11,28,13.30
2015,09,22,11,29,13.30
2015,09,22,11,30,13.30
2015,09,22,11,31,13.30
2015,09,22,11,32,13.30
2015,09,22,11,33,13.40
2015,09,22,11,34,13.40
2015,09,22,11,35,13.40
2015,09,22,11,36,13.40
2015,09,22,11,37,13.40
2015,09,22,11,38,13.40
2015,09,22,11,39,13.30
2015,09,22,11,40,13.30
2015,09,22,11,41,13.30
2015,09,22,11,42,13.20
2015,09,22,11,43,13.30
2015,09,22,11,44,13.30
2015,09,22,11,45,13.40
2015,09,22,11,46,13.50
2015,09,22,11,47,13.40
2015,09,22,11,48,13.30
2015,09,22,11,49,13.20
2015,09,22,11,50,13.30
2015,09,22,11,51,13.30
2015,09,22,11,52,13.40
2015,09,22,11,53,13.30
2015,09,22,11,54,13.30
2015,09,22,11,55,13.30
2015,09,22,11,56,13.30
2015,09,22,11,57,13.30
2015,09,22,11,58,13.30
2015,09,22,11,59,13.30
2015,09,22,12,00,13.30
2015,09,22,12,01,13.30
2015,09,22,12,02,13.30
2015,09,22,12,03,13.30
2015,09,22,12,04,13.20
2015,09,22,12,05,13.20
2015,09,22,12,06,13.20
2015,09,22,12,07,13.20
2015,09,22,12,08,13.20
2015,09,22,12,09,13.20
2015,09,22,12,10,13.30
2015,09,22,12,11,13.30
2015,09,22,12,12,13.40
2015,09,22,12,13,13.40
2015,09,22,12,14,13.50
2015,09,22,12,15,13.60
2015,09,22,12,16,13.70
2015,09,22,12,17,13.80
2015,09,22,12,18,13.90
2015,09,22,12,19,13.90
2015,09,22,12,20,13.90
2015,09,22,12,21,14.00
2015,09,22,12,22,14.10
2015,09,22,12,23,14.00
2015,09,22,12,24,13.90
2015,09,22,12,25,13.80
2015,09,22,12,26,13.70
2015,09,22,12,27,13.60
2015,09,22,12,28,13.50
2015,09,22,12,29,13.50
2015,09,22,12,30,13.60
2015,09,22,12,31,13.70
2015,09,22,12,32,13.80
2015,09,22,12,33,13.90
2015,09,22,12,34,14.00
2015,09,22,12,35,13.90
2015,09,22,12,36,13.90
2015,09,22,12,37,13.80
2015,09,22,12,38,13.80
2015,09,22,12,39,13.80
2015,09,22,12,40,13.90
2015,09,22,12,41,14.10
2015,09,22,12,42,14.20
2015,09,22,12,43,14.30
2015,09,22,12,44,14.40
2015,09,22,12,45,14.50
2015,09,22,12,46,14.50
2015,09,22,12,47,14.40
2015,09,22,12,48,14.40
2015,09,22,12,49,14.50
2015,09,22,12,50,14.50
2015,09,22,12,51,14.50
2015,09,22,12,52,14.40
2015,09,22,12,53,14.40
2015,09,22,12,54,14.40
2015,09,22,12,55,14.40
2015,09,22,12,56,14.40
2015,09,22,12,57,14.40
2015,09,22,12,58,14.40
2015,09,22,12,59,14.30
2015,09,22,13,00,14.30
2015,09,22,13,01,14.30
2015,09,22,13,02,14.20
2015,09,22,13,03,14.30
2015,09,22,13,04,14.30
2015,09,22,13,05,14.40
2015,09,22,13,06,14.40
2015,09,22,13,07,14.40
2015,09,22,13,08,14.40
2015,09,22,13,09,14.50
2015,09,22,13,10,14.50
2015,09,22,13,11,14.60
2015,09,22,13,12,14.70
2015,09,22,13,13,14.70
2015,09,22,13,14,14.70
2015,09,22,13,15,14.80
2015,09,22,13,16,14.80
2015,09,22,13,17,14.70
2015,09,22,13,18,14.70
2015,09,22,13,19,14.70
2015,09,22,13,20,14.70
2015,09,22,13,21,14.80
2015,09,22,13,22,14.90
2015,09,22,13,23,15.00
2015,09,22,13,24,15.10
2015,09,22,13,25,15.20
2015,09,22,13,26,15.20
2015,09,22,13,27,15.20
2015,09,22,13,28,15.30
2015,09,22,13,29,15.30
2015,09,22,13,30,15.50
2015,09,22,13,31,15.60
2015,09,22,13,32,15.80
2015,09,22,13,33,15.90
2015,09,22,13,34,15.90
2015,09,22,13,35,15.90
2015,09,22,13,36,15.90
2015,09,22,13,37,15.90
2015,09,22,13,38,16.00
2015,09,22,13,39,16.00
2015,09,22,13,40,16.00
2015,09,22,13,41,16.00
2015,09,22,13,42,16.00
2015,09,22,13,43,15.90
2015,09,22,13,44,15.90
2015,09,22,13,45,16.00
2015,09,22,13,46,16.10
2015,09,22,13,47,16.20
2015,09,22,13,48,16.30
2015,09,22,13,49,16.40
2015,09,22,13,50,16.40
2015,09,22,13,51,16.50
2015,09,22,13,52,16.60
2015,09,22,13,53,16.50
2015,09,22,13,54,16.50
2015,09,22,13,55,16.50
2015,09,22,13,56,16.50
2015,09,22,13,57,16.50
2015,09,22,13,58,16.50
2015,09,22,13,59,16.40
2015,09,22,14,00,16.30
2015,09,22,14,01,16.30
2015,09,22,14,02,16.30
2015,09,22,14,03,16.30
2015,09,22,14,04,16.30
2015,09,22,14,05,16.40
2015,09,22,14,06,16.40
2015,09,22,14,07,16.40
2015,09,22,14,08,16.40
2015,09,22,14,09,16.40
2015,09,22,14,10,16.40
2015,09,22,14,11,16.20
2015,09,22,14,12,16.20
2015,09,22,14,13,16.20
2015,09,22,14,14,16.30
2015,09,22,14,15,16.40
2015,09,22,14,16,16.40
2015,09,22,14,17,16.50
2015,09,22,14,18,16.50
2015,09,22,14,19,16.50
2015,09,22,14,20,16.50
2015,09,22,14,21,16.60
2015,09,22,14,22,16.60
2015,09,22,14,23,16.60
2015,09,22,14,24,16.50
2015,09,22,14,25,16.50
2015,09,22,14,26,16.60
2015,09,22,14,27,16.60
2015,09,22,14,28,16.70
2015,09,22,14,29,16.70
2015,09,22,14,30,16.70
2015,09,22,14,31,16.80
2015,09,22,14,32,16.90
2015,09,22,14,33,16.90
2015,09,22,14,34,16.90
2015,09,22,14,35,17.00
2015,09,22,14,36,17.10
2015,09,22,14,37,17.30
2015,09,22,14,38,17.50
2015,09,22,14,39,17.70
2015,09,22,14,40,17.80
2015,09,22,14,41,17.90
2015,09,22,14,42,17.90
2015,09,22,14,43,18.00
2015,09,22,14,44,18.00
2015,09,22,14,45,18.10
2015,09,22,14,46,18.10
2015,09,22,14,47,18.10
2015,09,22,14,48,18.00
2015,09,22,14,49,18.00
2015,09,22,14,50,18.10
2015,09,22,14,51,18.20
2015,09,22,14,52,18.30
2015,09,22,14,53,18.40
2015,09,22,14,54,18.50
2015,09,22,14,55,18.50
2015,09,22,14,56,18.50
2015,09,22,14,57,18.40
2015,09,22,14,58,18.30
2015,09,22,14,59,18.30
2015,09,22,15,00,18.20
2015,09,22,15,01,18.20
2015,09,22,15,02,18.30
2015,09,22,15,03,18.20
2015,09,22,15,04,18.20
2015,09,22,15,05,18.20
2015,09,22,15,06,18.10
2015,09,22,15,07,18.10
2015,09,22,15,08,18.00
2015,09,22,15,09,17.90
2015,09,22,15,10,17.90
2015,09,22,15,11,18.00
2015,09,22,15,12,18.00
2015,09,22,15,13,18.10
2015,09,22,15,14,18.20
2015,09,22,15,15,18.20
2015,09,22,15,16,18.20
2015,09,22,15,17,18.20
2015,09,22,15,18,18.10
2015,09,22,15,19,18.10
2015,09,22,15,20,18.10
2015,09,22,15,21,18.00
2015,09,22,15,22,17.90
2015,09,22,15,23,17.90
2015,09,22,15,24,18.00
2015,09,22,15,25,18.00
2015,09,22,15,26,17.90
2015,09,22,15,27,17.90
2015,09,22,15,28,17.90
2015,09,22,15,29,17.90
2015,09,22,15,30,17.80
2015,09,22,15,31,17.80
2015,09,22,15,32,17.80
2015,09,22,15,33,17.70
2015,09,22,15,34,17.60
2015,09,22,15,35,17.60
2015,09,22,15,36,17.60
2015,09,22,15,37,17.60
2015,09,22,15,38,17.50
2015,09,22,15,39,17.50
2015,09,22,15,40,17.60
2015,09,22,15,41,17.50
2015,09,22,15,42,17.50
2015,09,22,15,43,17.40
2015,09,22,15,44,17.40
2015,09,22,15,45,17.40
2015,09,22,15,46,17.30
2015,09,22,15,47,17.30
2015,09,22,15,48,17.30
2015,09,22,15,49,17.40
2015,09,22,15,50,17.40
2015,09,22,15,51,17.40
2015,09,22,15,52,17.30
2015,09,22,15,53,17.30
2015,09,22,15,54,17.30
2015,09,22,15,55,17.30
2015,09,22,15,56,17.30
2015,09,22,15,57,17.30
2015,09,22,15,58,17.40
2015,09,22,15,59,17.30
2015,09,22,16,00,17.40
2015,09,22,16,01,17.40
2015,09,22,16,02,17.40
2015,09,22,16,03,17.40
2015,09,22,16,04,17.40
2015,09,22,16,05,17.40
2015,09,22,16,06,17.40
2015,09,22,16,07,17.40
2015,09,22,16,08,17.30
2015,09,22,16,09,17.30
2015,09,22,16,10,17.20
2015,09,22,16,11,17.20
2015,09,22,16,12,17.10
2015,09,22,16,13,17.10
2015,09,22,16,14,17.00
2015,09,22,16,15,17.00
2015,09,22,16,16,17.00
2015,09,22,16,17,17.00
2015,09,22,16,18,17.00
2015,09,22,16,19,17.10
2015,09,22,16,20,17.10
2015,09,22,16,21,17.00
2015,09,22,16,22,17.00
2015,09,22,16,23,17.00
2015,09,22,16,24,16.90
2015,09,22,16,25,16.90
2015,09,22,16,26,16.90
2015,09,22,16,27,16.90
2015,09,22,16,28,16.90
2015,09,22,16,29,17.00
2015,09,22,16,30,17.10
2015,09,22,16,31,17.20
2015,09,22,16,32,17.20
2015,09,22,16,33,17.30
2015,09,22,16,34,17.30
2015,09,22,16,35,17.20
2015,09,22,16,36,17.20
2015,09,22,16,37,17.20
2015,09,22,16,38,17.20
2015,09,22,16,39,17.20
2015,09,22,16,40,17.20
2015,09,22,16,41,17.20
2015,09,22,16,42,17.20
2015,09,22,16,43,17.20
2015,09,22,16,44,17.20
2015,09,22,16,45,17.20
2015,09,22,16,46,17.10
2015,09,22,16,47,17.10
2015,09,22,16,48,17.00
2015,09,22,16,49,16.90
2015,09,22,16,50,16.90
2015,09,22,16,51,16.80
2015,09,22,16,52,16.80
2015,09,22,16,53,16.70
2015,09,22,16,54,16.70
2015,09,22,16,55,16.60
2015,09,22,16,56,16.50
2015,09,22,16,57,16.40
2015,09,22,16,58,16.40
2015,09,22,16,59,16.40
2015,09,22,17,00,16.30
2015,09,22,17,01,16.30
2015,09,22,17,02,16.20
2015,09,22,17,03,16.20
2015,09,22,17,04,16.20
2015,09,22,17,05,16.20
2015,09,22,17,06,16.10
2015,09,22,17,07,16.10
2015,09,22,17,08,16.10
2015,09,22,17,09,16.10
2015,09,22,17,10,16.10
2015,09,22,17,11,16.00
2015,09,22,17,12,16.00
2015,09,22,17,13,15.90
2015,09,22,17,14,15.90
2015,09,22,17,15,15.90
2015,09,22,17,16,15.90
2015,09,22,17,17,15.90
2015,09,22,17,18,15.80
2015,09,22,17,19,15.90
2015,09,22,17,20,15.90
2015,09,22,17,21,15.90
2015,09,22,17,22,15.90
2015,09,22,17,23,15.90
2015,09,22,17,24,15.90
2015,09,22,17,25,15.90
2015,09,22,17,26,15.90
2015,09,22,17,27,15.90
2015,09,22,17,28,15.90
2015,09,22,17,29,15.80
2015,09,22,17,30,15.80
2015,09,22,17,31,15.70
2015,09,22,17,32,15.70
2015,09,22,17,33,15.70
2015,09,22,17,34,15.60
2015,09,22,17,35,15.60
2015,09,22,17,36,15.50
2015,09,22,17,37,15.40
2015,09,22,17,38,15.40
2015,09,22,17,39,15.30
2015,09,22,17,40,15.30
2015,09,22,17,41,15.20
2015,09,22,17,42,15.20